{"data":{"norad_id":53323,"intl_designator":"2022-089A","name":"COSMOS 2558","alt_names":[],"object_type":"PAYLOAD","status":"ACTIVE","operator":null,"country":"CIS","launch_date":"2022-08-01","launch_site_code":"PLMSC","launch_vehicle":null,"mission":null,"orbit_class":"UNKNOWN","rcs_meters":null,"size_class":null,"mass_kg":null,"dimensions":null,"purposes":[],"wikipedia_slug":null,"has_3d_model":false,"image_url":null,"decayed_at":null,"tle_current":{"epoch":"2026-09-12T01:46:40.185408Z","epoch_age_seconds":868375,"freshness":"AGED","line1":"1 53323U 22089A   26255.07407622  .09214690  24429-5  34229-3 0  9995","line2":"2 53323  97.2053   4.5867 0014198 269.3733  90.5942 16.42755340231631","mean_motion":16.4275534,"eccentricity":0.0014198,"inclination_deg":97.2053,"raan_deg":4.5867,"arg_perigee_deg":269.3733,"mean_anomaly_deg":90.5942,"bstar":0.00034229,"rev_number":23163,"period_min":87.65760578809,"perigee_km":149.20247488559,"apogee_km":167.76386151521,"semimajor_km":6536.6201682004,"source":"CELESTRAK","updated_at":"2026-09-12T09:00:15.881312Z"}}}